Date String (YYYY-MM-DD hh:mm:ss) UTC,Instrument flags,absolute air pressure of the measurement (hPa),sample flow rate (lpm),inlet stack bypass flow (lpm),air temperature of the measurement (°C),ambient temperature measured by the external sensor (°C),aerosol sample conditioner tube jacket temperature (°C),OPC LED temperature (°C),internal box temperature (°C),relative humidity of the measurement (%),span deviation,mass concentration of particles derived from Lorenz-Mie calculation of OPC scattering (μg/m³),mass concentration of particles derived from Lorenz-Mie calculation of OPC scattering (μg/m³),mass concentration of particles derived from Lorenz-Mie calculation of OPC scattering (μg/m³)
DateTimeUTC,F1_M11,P_M11,Q1_M11,Q2_M11,T1_M11,T2_M11,T3_M11,T4_M11,T5_M11,U1_M11,ZSPAN_M11,X2_M11,X0_M11,X1_M11
2023-08-01 06:00:00,SystemResetWarning,0837.0,5.00,000.00,031.1,028.3,000.0,039.1,031.5,31.8,0000.0,0003.21,0005.45,0002.93
2023-08-01 06:01:00,SystemResetWarning,0837.0,5.01,000.00,031.1,028.3,000.0,039.1,031.5,31.7,0000.0,0003.21,0004.17,0002.94
2023-08-01 06:02:00,SystemResetWarning,0836.9,5.00,000.00,031.0,028.4,000.0,039.1,031.6,31.3,0000.0,0003.21,0004.41,0002.94
2023-08-01 06:03:00,SystemResetWarning,0836.9,5.00,000.00,031.0,028.4,000.0,039.1,031.6,31.1,0000.0,0003.22,0004.46,0002.94
2023-08-01 06:04:00,SystemResetWarning,0836.9,5.00,000.00,031.0,028.4,000.0,039.2,031.6,31.3,0000.0,0003.23,0004.50,0002.93
2023-08-01 06:05:00,SystemResetWarning,0836.9,4.98,000.00,031.0,027.9,000.0,039.1,031.6,31.3,0000.0,0003.24,0004.62,0002.92
2023-08-01 06:06:00,SystemResetWarning,0836.8,4.99,000.00,031.0,026.2,000.0,039.0,031.4,31.5,0000.0,0003.23,0005.24,0002.92
2023-08-01 06:07:00,SystemResetWarning,0836.9,5.01,000.00,030.9,025.5,000.0,038.9,031.1,31.9,0000.0,0003.24,0005.99,0002.91
2023-08-01 06:08:00,SystemResetWarning,0836.8,5.01,000.00,030.7,025.6,000.0,038.9,030.9,32.4,0000.0,0003.25,0005.99,0002.90
2023-08-01 06:09:00,SystemResetWarning,0836.8,4.99,000.00,030.6,026.0,000.0,038.9,030.9,32.2,0000.0,0003.24,0006.02,0002.88
2023-08-01 06:10:00,SystemResetWarning,0836.8,5.00,000.00,030.5,026.4,000.0,038.9,031.0,32.3,0000.0,0003.25,0006.08,0002.86
2023-08-01 06:11:00,SystemResetWarning,0836.8,5.01,000.00,030.4,026.7,000.0,038.9,031.0,32.6,0000.0,0003.23,0006.07,0002.82
2023-08-01 06:12:00,SystemResetWarning,0836.8,5.00,000.00,030.4,027.0,000.0,038.8,031.1,32.8,0000.0,0003.22,0006.06,0002.77
2023-08-01 06:13:00,SystemResetWarning,0836.9,5.00,000.00,030.4,027.3,000.0,038.8,031.1,32.9,0000.0,0003.18,0005.76,0002.71
2023-08-01 06:14:00,SystemResetWarning,0836.9,5.00,000.00,030.4,027.5,000.0,038.8,031.2,32.4,0000.0,0003.12,0005.49,0002.64
2023-08-01 06:15:00,SystemResetWarning,0836.9,5.00,000.00,030.4,027.7,000.0,038.8,031.2,32.9,0000.0,0003.05,0005.36,0002.58
2023-08-01 06:16:00,SystemResetWarning,0837.0,5.00,000.00,030.4,027.8,000.0,038.8,031.2,33.3,0000.0,0003.03,0005.31,0002.54
2023-08-01 06:17:00,SystemResetWarning,0837.0,4.98,000.00,030.3,027.9,000.0,038.8,031.2,32.9,0000.0,0002.98,0004.82,0002.50
2023-08-01 06:18:00,SystemResetWarning,0837.0,4.99,000.00,030.3,028.0,000.0,038.7,031.3,33.0,0000.0,0002.91,0003.75,0002.46
2023-08-01 06:19:00,SystemResetWarning,0837.0,5.00,000.00,030.3,028.1,000.0,038.7,031.3,33.3,0000.0,0002.87,0003.69,0002.44
2023-08-01 06:20:00,SystemResetWarning,0837.0,5.01,000.00,030.3,028.2,000.0,038.7,031.3,33.4,0000.0,0002.85,0003.71,0002.42
2023-08-01 06:21:00,SystemResetWarning,0837.0,5.01,000.00,030.3,028.3,000.0,038.7,031.4,33.4,0000.0,0002.82,0003.68,0002.38
2023-08-01 06:22:00,SystemResetWarning,0837.0,5.00,000.00,030.3,028.3,000.0,038.7,031.4,33.9,0000.0,0002.83,0003.75,0002.37
2023-08-01 06:23:00,SystemResetWarning,0836.9,4.99,000.00,030.3,028.4,000.0,038.7,031.4,33.7,0000.0,0002.80,0003.73,0002.35
2023-08-01 06:24:00,SystemResetWarning,0836.9,5.00,000.00,030.3,028.4,000.0,038.7,031.4,33.6,0000.0,0002.78,0003.67,0002.34
2023-08-01 06:25:00,SystemResetWarning,0837.0,4.99,000.00,030.3,027.4,000.0,038.6,031.4,33.5,0000.0,0002.80,0003.71,0002.36
2023-08-01 06:26:00,SystemResetWarning,0836.9,5.01,000.00,030.3,025.9,000.0,038.5,031.1,33.4,0000.0,0002.89,0003.87,0002.39
2023-08-01 06:27:00,SystemResetWarning,0837.0,5.01,000.00,030.2,025.5,000.0,038.4,030.9,33.9,0000.0,0002.91,0003.93,0002.39
2023-08-01 06:28:00,SystemResetWarning,0837.0,4.98,000.00,030.0,025.7,000.0,038.4,030.7,35.5,0000.0,0002.91,0003.95,0002.40
2023-08-01 06:29:00,SystemResetWarning,0836.9,5.02,000.00,030.1,026.1,000.0,038.4,030.9,35.2,0000.0,0002.94,0004.05,0002.42
2023-08-01 06:30:00,SystemResetWarning,0837.0,5.01,000.00,030.4,026.5,000.0,038.4,031.1,35.0,0000.0,0002.96,0004.06,0002.43
2023-08-01 06:31:00,SystemResetWarning,0837.2,4.97,000.00,030.7,026.8,000.0,038.5,031.2,34.5,0000.0,0002.92,0003.91,0002.42
2023-08-01 06:32:00,SystemResetWarning,0837.2,5.01,000.00,030.9,027.1,000.0,038.5,031.3,34.4,0000.0,0002.90,0003.89,0002.42
2023-08-01 06:33:00,SystemResetWarning,0837.2,4.99,000.00,031.0,027.4,000.0,038.5,031.3,35.2,0000.0,0002.86,0003.74,0002.43
2023-08-01 06:34:00,SystemResetWarning,0837.2,5.02,000.00,031.1,027.6,000.0,038.6,031.4,35.2,0000.0,0002.83,0003.64,0002.44
2023-08-01 06:35:00,SystemResetWarning,0837.2,5.00,000.00,031.5,027.8,000.0,038.7,031.6,34.9,0000.0,0002.85,0003.75,0002.45
2023-08-01 06:36:00,SystemResetWarning,0837.2,4.97,000.00,031.7,027.9,000.0,038.8,031.7,34.5,0000.0,0002.90,0003.95,0002.46
2023-08-01 06:37:00,SystemResetWarning,0837.2,5.01,000.00,031.9,028.1,000.0,038.9,031.7,34.2,0000.0,0002.92,0004.01,0002.47
2023-08-01 06:38:00,SystemResetWarning,0837.2,5.00,000.00,032.0,028.2,000.0,039.0,031.7,34.0,0000.0,0002.89,0004.26,0002.48
2023-08-01 06:39:00,SystemResetWarning,0837.2,4.99,000.00,032.0,028.3,000.0,039.2,031.7,34.3,0000.0,0002.86,0004.70,0002.49
2023-08-01 06:40:00,SystemResetWarning,0837.2,4.98,000.00,032.1,028.4,000.0,039.3,031.8,34.8,0000.0,0002.86,0004.64,0002.49
2023-08-01 06:41:00,SystemResetWarning,0837.1,5.02,000.00,032.1,028.5,000.0,039.4,031.8,35.3,0000.0,0002.89,0004.81,0002.49
2023-08-01 06:42:00,SystemResetWarning,0837.1,5.01,000.00,032.4,028.5,000.0,039.5,032.0,35.1,0000.0,0002.93,0004.94,0002.50
2023-08-01 06:43:00,SystemResetWarning,0837.2,4.98,000.00,032.6,028.4,000.0,039.6,032.1,34.7,0000.0,0002.96,0004.98,0002.53
2023-08-01 06:44:00,SystemResetWarning,0837.2,5.00,000.00,032.8,026.9,000.0,039.5,032.0,34.3,0000.0,0003.00,0005.08,0002.55
2023-08-01 06:45:00,SystemResetWarning,0837.2,5.00,000.00,032.9,025.8,000.0,039.5,031.8,34.3,0000.0,0003.07,0005.25,0002.56
2023-08-01 06:46:00,SystemResetWarning,0837.2,5.01,000.00,032.8,025.7,000.0,039.6,031.5,34.6,0000.0,0003.08,0005.24,0002.58
2023-08-01 06:47:00,SystemResetWarning,0837.2,4.99,000.00,032.6,026.0,000.0,039.7,031.4,35.2,0000.0,0003.10,0005.18,0002.60
2023-08-01 06:48:00,SystemResetWarning,0837.2,5.03,000.00,032.6,026.4,000.0,039.8,031.5,35.2,0000.0,0003.10,0005.12,0002.62
2023-08-01 06:49:00,SystemResetWarning,0837.2,5.00,000.00,032.8,026.7,000.0,039.9,031.7,34.8,0000.0,0003.11,0005.20,0002.65
2023-08-01 06:50:00,SystemResetWarning,0837.2,4.98,000.00,033.0,027.1,000.0,040.0,031.8,34.5,0000.0,0003.13,0004.92,0002.68
2023-08-01 06:51:00,SystemResetWarning,0837.2,5.01,000.00,033.0,027.3,000.0,040.1,031.9,34.3,0000.0,0003.17,0004.99,0002.73
2023-08-01 06:52:00,SystemResetWarning,0837.2,5.01,000.00,033.1,027.6,000.0,040.1,031.9,34.2,0000.0,0003.19,0004.95,0002.78
2023-08-01 06:53:00,SystemResetWarning,0837.2,4.99,000.00,033.0,027.8,000.0,040.2,031.9,34.2,0000.0,0003.27,0005.57,0002.87
2023-08-01 06:54:00,SystemResetWarning,0837.2,5.00,000.00,033.0,028.0,000.0,040.3,032.0,34.3,0000.0,0003.35,0005.92,0002.96
2023-08-01 06:55:00,SystemResetWarning,0837.2,5.00,000.00,033.0,028.1,000.0,040.4,032.0,34.4,0000.0,0003.43,0006.14,0003.07
2023-08-01 06:56:00,SystemResetWarning,0837.2,5.00,000.00,032.9,028.3,000.0,040.4,032.0,34.6,0000.0,0003.51,0006.36,0003.16
2023-08-01 06:57:00,SystemResetWarning,0837.2,5.00,000.00,032.9,028.4,000.0,040.5,032.1,34.8,0000.0,0003.61,0006.69,0003.24
2023-08-01 06:58:00,SystemResetWarning,0837.2,5.01,000.00,032.9,028.5,000.0,040.5,032.1,34.9,0000.0,0003.69,0006.80,0003.32
2023-08-01 06:59:00,SystemResetWarning,0837.1,5.00,000.00,032.9,028.6,000.0,040.5,032.1,35.1,0000.0,0003.77,0006.94,0003.40
